Defiance, OH

1:45 PM EST on January 17, 2018 (GMT -0500)
Defiance Memorial

Weather History for KDFI - August, 2014

Change the Weather History Date:

Friday, August 15, 2014

  Actual Average Record
Temperature  
Mean Temperature 60 °F -  
Max Temperature 75 °F 83 °F 97 °F (1944)
Min Temperature 45 °F 59 °F 41 °F (1964)
Degree Days  
Heating Degree Days 5    
Growing Degree Days 10 (Base 50)    
Moisture  
Dew Point 47 °F    
Average Humidity 64    
Maximum Humidity 93    
Minimum Humidity 36    
Precipitation  
Precipitation 0.00 in - - ()
Sea Level Pressure  
Sea Level Pressure 30.04 in    
Wind  
Wind Speed 2 mph (WNW)    
Max Wind Speed 7 mph    
Max Gust Speed -    
Visibility 10 miles    
Events      
Averages and records for this station are not official NWS values.
T = Trace of Precipitation, MM = Missing Value Source: NWS Daily Summary

Daily Weather History Graph

Daily Weather History Graph

Search for Another Location

Airport or City:

Trip Planner

Search our weather history database for the weather conditions in past years. The results will help you decide how hot, cold, wet, or windy it might be!

Date:

Astronomy

Aug. 15, 2014 Rise Set
Actual Time 6:46 AM EDT 8:36 PM EDT
Civil Twilight 6:17 AM EDT 9:06 PM EDT
Nautical Twilight 5:40 AM EDT 9:42 PM EDT
Astronomical Twilight 5:01 AM EDT 10:21 PM EDT
Moon 11:34 PM EDT (8/15) 12:32 PM EDT (8/15)
Length of Visible Light 14h 49m
Length of Day
13h 49m
Waning Gibbous, 69% of the Moon is Illuminated
Aug 15
Waning Gibbous
Aug 17
Last Quarter
Aug 25
New
Sep 2
First Quarter
Sep 8
Full

Hourly Weather History & Observations

Time (EDT) Temp. Dew Point Humidity Pressure Visibility Wind Dir Wind Speed Gust Speed Precip Events Conditions
12:53 AM 53.1 °F 46.9 °F 80% 30.04 in 10.0 mi Calm Calm - N/A   Clear
1:53 AM 53.1 °F 46.9 °F 80% 30.04 in 10.0 mi Calm Calm - N/A   Clear
2:53 AM 51.1 °F 46.0 °F 83% 30.04 in 10.0 mi NW 3.5 mph - N/A   Clear
3:53 AM 48.9 °F 44.1 °F 83% 30.04 in 10.0 mi NW 3.5 mph - N/A   Clear
4:53 AM 46.9 °F 44.1 °F 90% 30.05 in 10.0 mi Calm Calm - N/A   Clear
5:53 AM 46.0 °F 43.0 °F 89% 30.06 in 10.0 mi Calm Calm - N/A   Clear
6:53 AM 45.0 °F 42.1 °F 90% 30.07 in 10.0 mi Calm Calm - N/A   Clear
7:53 AM 46.0 °F 44.1 °F 93% 30.09 in 10.0 mi Calm Calm - N/A   Clear
8:53 AM 55.0 °F 46.9 °F 74% 30.10 in 10.0 mi Calm Calm - N/A   Clear
10:53 AM 64.0 °F 46.0 °F 52% 30.09 in 10.0 mi SSW 3.5 mph - N/A   Clear
11:53 AM 69.1 °F 46.9 °F 45% 30.09 in 10.0 mi NW 5.8 mph - N/A   Clear
12:53 PM 70.0 °F 48.0 °F 46% 30.08 in 10.0 mi Variable 5.8 mph - N/A   Clear
1:53 PM 73.0 °F 48.0 °F 41% 30.06 in 10.0 mi Variable 4.6 mph - N/A   Partly Cloudy
2:53 PM 73.9 °F 46.9 °F 38% 30.05 in 10.0 mi WNW 6.9 mph - N/A   Scattered Clouds
3:53 PM 73.9 °F 46.9 °F 38% 30.04 in 10.0 mi Variable 5.8 mph - N/A   Clear
4:53 PM 75.0 °F 46.0 °F 36% 30.03 in 10.0 mi WSW 5.8 mph - N/A   Clear
5:53 PM 75.0 °F 46.0 °F 36% 30.01 in 10.0 mi West 4.6 mph - N/A   Clear
6:53 PM 73.9 °F 46.0 °F 37% 30.00 in 10.0 mi Variable 3.5 mph - N/A   Clear
7:53 PM 72.0 °F 48.0 °F 43% 30.00 in 10.0 mi Calm Calm - N/A   Clear
8:53 PM 66.9 °F 50.0 °F 54% 30.00 in 10.0 mi Calm Calm - N/A   Clear
9:53 PM 61.0 °F 52.0 °F 72% 30.01 in 10.0 mi Calm Calm - N/A   Clear
10:53 PM 55.9 °F 51.1 °F 84% 30.01 in 10.0 mi Calm Calm - N/A   Clear
11:53 PM 55.0 °F 50.0 °F 83% 30.01 in 10.0 mi Calm Calm - N/A   Clear